Latest Weather Observations for Longerenong

IDV60801

Issued at 1:02 am EDT Sunday 29 March 2015 (issued every 30 minutes, with the page automatically refreshed every 10 minutes)

About weather observations | Map of weather stations | Latest weather observations for VIC | Other Formats
Station Details ID: 079028 Name: LONGERENONG Lat: -36.67 Lon: 142.30 Height: 133.0 m
Data from the previous 72 hours. | See also: Recent months at Longerenong
Date/Time
EDT
Temp
°C
App
Temp
°C
Dew
Point
Rel
Hum
%
Delta-T
°C
Wind Press
QNH
hPa
Press
MSL
hPa
Rain
since 9 am
mm
Dir
 
Spd
km/h
Gust
km/h
Spd
kts
Gust
kts
29/01:00am 9.9 - - - - ESE 6 7 3 4 - - 0.0
29/12:30am 10.0 - - - - E 6 6 3 3 - - 0.0
29/12:00am 10.8 - - - - E 6 7 3 4 - - 0.0
 
Date/Time
EDT
Temp
°C
App
Temp
°C
Dew
Point
Rel
Hum
%
Delta-T
°C
Wind Press
QNH
hPa
Press
MSL
hPa
Rain
since 9 am
mm
Dir
 
Spd
km/h
Gust
km/h
Spd
kts
Gust
kts
28/11:30pm 11.3 - - - - E 6 7 3 4 - - 0.0
28/11:00pm 12.4 - - - - E 6 6 3 3 - - 0.0
28/10:30pm 12.6 - - - - ESE 6 6 3 3 - - 0.0
28/10:00pm 12.8 - - - - ESE 6 6 3 3 - - 0.0
28/09:30pm 13.2 - - - - SE 6 6 3 3 - - 0.0
28/09:00pm 13.5 - - - - SE 4 4 2 2 - - 0.0
28/08:30pm 14.3 - - - - SSE 6 6 3 3 - - 0.0
28/08:00pm 15.1 - - - - SSE 9 9 5 5 - - 0.0
28/07:30pm 16.8 - - - - S 2 4 1 2 - - 0.0
28/07:00pm 18.1 - - - - SSE 6 9 3 5 - - 0.0
28/06:30pm 19.0 - - - - SE 2 6 1 3 - - 0.0
28/06:00pm 19.6 - - - - WSW 7 13 4 7 - - 0.0
28/05:30pm 18.9 - - - - SSE 6 11 3 6 - - 0.0
28/05:00pm 19.1 - - - - WSW 11 17 6 9 - - 0.0
28/04:30pm 18.4 - - - - S 7 13 4 7 - - 0.0
28/04:00pm 17.9 - - - - S 6 13 3 7 - - 0.0
28/03:30pm 17.9 - - - - S 7 13 4 7 - - 0.0
28/03:00pm 18.0 - - - - WNW 6 15 3 8 - - 0.0
28/02:30pm 17.3 - - - - WNW 6 11 3 6 - - 0.0
28/02:00pm 16.4 - - - - W 7 9 4 5 - - 0.0
28/01:30pm 15.9 - - - - NE 6 13 3 7 - - 0.0
28/01:00pm 15.3 - - - - WNW 7 15 4 8 - - 0.0
28/12:30pm 15.1 - - - - NNW 4 11 2 6 - - 0.0
28/12:00pm 14.2 - - - - NW 6 15 3 8 - - 0.0
28/11:30am 14.1 - - - - WNW 4 7 2 4 - - 0.0
28/11:00am 13.6 - - - - N 4 9 2 5 - - 0.0
28/10:30am 13.4 - - - - NW 4 7 2 4 - - 0.0
28/10:00am 13.3 - - - - W 2 7 1 4 - - 0.0
28/09:30am 13.1 - - - - CALM 0 4 0 2 - - 0.0
28/09:00am 12.9 - - - - WNW 2 6 1 3 - - 0.0
28/08:30am 12.5 - - - - WNW 2 4 1 2 - - 0.0
28/08:00am 12.5 - - - - WNW 2 7 1 4 - - 0.0
28/07:30am 12.0 - - - - CALM 0 0 0 0 - - 0.0
28/07:00am 11.9 - - - - CALM 0 0 0 0 - - 0.0
28/06:30am 11.9 - - - - SSW 2 6 1 3 - - 0.0
28/06:00am 11.9 - - - - SW 2 4 1 2 - - 0.0
28/05:30am 11.9 - - - - SW 4 6 2 3 - - 0.0
28/05:00am 12.0 - - - - SSW 4 6 2 3 - - 0.0
28/04:30am 12.0 - - - - SSW 2 2 1 1 - - 0.0
28/04:00am 11.9 - - - - SSW 2 2 1 1 - - 0.0
28/03:30am 12.0 - - - - SSW 6 6 3 3 - - 0.0
28/03:00am 12.1 - - - - SSW 6 7 3 4 - - 0.0
28/02:30am 12.1 - - - - SSW 6 9 3 5 - - 0.0
28/02:00am 12.1 - - - - SSW 4 6 2 3 - - 0.0
28/01:30am 12.3 - - - - SSW 6 9 3 5 - - 0.0
28/01:00am 12.6 - - - - S 6 7 3 4 - - 0.0
28/12:30am 12.5 - - - - SSW 7 9 4 5 - - 0.0
28/12:00am 12.6 - - - - SSW 7 9 4 5 - - 0.0
 
Date/Time
EDT
Temp
°C
App
Temp
°C
Dew
Point
Rel
Hum
%
Delta-T
°C
Wind Press
QNH
hPa
Press
MSL
hPa
Rain
since 9 am
mm
Dir
 
Spd
km/h
Gust
km/h
Spd
kts
Gust
kts
27/11:30pm 12.4 - - - - SW 6 9 3 5 - - 0.0
27/11:00pm 12.3 - - - - SSW 11 17 6 9 - - 0.0
27/10:30pm 13.0 - - - - SSW 9 13 5 7 - - 0.0
27/10:00pm 13.2 - - - - SSW 9 15 5 8 - - 0.0
27/09:30pm 13.3 - - - - S 13 19 7 10 - - 0.0
27/09:00pm 13.8 - - - - S 15 20 8 11 - - 0.0
27/08:30pm 14.3 - - - - S 13 17 7 9 - - 0.0
27/08:00pm 14.9 - - - - S 17 22 9 12 - - 0.0
27/07:30pm 15.2 - - - - S 13 17 7 9 - - 0.0
27/07:00pm 15.7 - - - - S 15 19 8 10 - - 0.0
27/06:30pm 16.1 - - - - SSW 15 19 8 10 - - 0.0
27/06:00pm 16.2 - - - - SSW 17 20 9 11 - - 0.0
27/05:30pm 16.3 - - - - SW 17 22 9 12 - - 0.0
27/05:00pm 16.6 - - - - S 13 19 7 10 - - 0.0
27/04:30pm 16.7 - - - - SSW 15 20 8 11 - - 0.0
27/04:00pm 16.5 - - - - SSW 19 24 10 13 - - 0.0
27/03:30pm 16.6 - - - - SW 22 35 12 19 - - 0.0
27/03:00pm 16.4 - - - - SSW 22 26 12 14 - - 0.0
27/02:30pm 16.3 - - - - S 28 35 15 19 - - 0.0
27/02:00pm 17.3 - - - - SSW 17 24 9 13 - - 0.0
27/01:30pm 17.1 - - - - SW 22 30 12 16 - - 0.0
27/01:00pm 15.9 - - - - S 24 33 13 18 - - 0.0
27/12:30pm 15.3 - - - - SW 20 28 11 15 - - 0.0
27/12:00pm 15.0 - - - - SW 20 28 11 15 - - 0.0
27/11:30am 14.4 - - - - SW 20 28 11 15 - - 0.0
27/11:00am 14.1 - - - - SW 22 32 12 17 - - 0.0
27/10:30am 13.5 - - - - WSW 20 28 11 15 - - 0.0
27/10:00am 13.0 - - - - SW 20 26 11 14 - - 0.0
27/09:30am 12.6 - - - - SW 20 28 11 15 - - 0.0
27/09:00am 12.1 - - - - SW 22 28 12 15 - - 0.0
27/08:30am 11.1 - - - - WSW 13 17 7 9 - - 0.0
27/08:00am 10.4 - - - - SW 15 19 8 10 - - 0.0
27/07:30am 10.8 - - - - WSW 17 26 9 14 - - 0.0
27/07:00am 10.8 - - - - WSW 19 24 10 13 - - 0.0
27/06:30am 11.3 - - - - SW 19 24 10 13 - - 0.0
27/06:00am 11.5 - - - - WSW 20 24 11 13 - - 0.0
27/05:30am 11.2 - - - - WSW 19 28 10 15 - - 0.0
27/05:00am 11.0 - - - - WSW 19 28 10 15 - - 0.0
27/04:30am 11.0 - - - - WSW 15 24 8 13 - - 0.0
27/04:00am 11.5 - - - - W 17 26 9 14 - - 0.0
27/03:30am 11.4 - - - - W 15 19 8 10 - - 0.0
27/03:00am 11.6 - - - - W 19 24 10 13 - - 0.0
27/02:30am 11.6 - - - - W 17 20 9 11 - - 0.0
27/02:00am 11.4 - - - - W 19 24 10 13 - - 0.0
27/01:30am 11.4 - - - - W 17 22 9 12 - - 0.0
27/01:00am 11.6 - - - - W 20 28 11 15 - - 0.0
27/12:30am 11.7 - - - - W 20 28 11 15 - - 0.0
27/12:00am 11.7 - - - - W 20 30 11 16 - - 0.0
 
Date/Time
EDT
Temp
°C
App
Temp
°C
Dew
Point
Rel
Hum
%
Delta-T
°C
Wind Press
QNH
hPa
Press
MSL
hPa
Rain
since 9 am
mm
Dir
 
Spd
km/h
Gust
km/h
Spd
kts
Gust
kts
26/11:30pm 11.7 - - - - W 22 33 12 18 - - 0.0
26/11:00pm 11.8 - - - - W 24 35 13 19 - - 0.0
26/10:30pm 12.1 - - - - W 28 44 15 24 - - 0.0
26/10:00pm 12.2 - - - - W 28 37 15 20 - - 0.0
26/09:30pm 12.3 - - - - W 28 43 15 23 - - 0.0
26/09:00pm 12.6 - - - - W 30 41 16 22 - - 0.0
26/08:30pm 13.0 - - - - W 28 37 15 20 - - 0.0
26/08:00pm 12.9 - - - - W 30 43 16 23 - - 0.0
26/07:30pm 13.5 - - - - WSW 35 46 19 25 - - 0.0
26/07:00pm 13.9 - - - - WSW 41 54 22 29 - - 0.0
26/06:30pm 14.4 - - - - WSW 37 54 20 29 - - 0.0
26/06:21pm 14.5 - - - - WSW 37 56 20 30 - - 0.0
26/06:00pm 15.2 - - - - W 39 52 21 28 - - 0.0
26/05:38pm 15.4 - - - - W 43 63 23 34 - - 0.0
26/05:30pm 15.6 - - - - W 44 57 24 31 - - 0.0
26/05:00pm 15.9 - - - - WSW 43 61 23 33 - - 0.0
26/04:30pm 16.9 - - - - W 37 56 20 30 - - 0.0
26/04:26pm 16.0 - - - - W 37 56 20 30 - - 0.0
26/04:00pm 15.6 - - - - WSW 41 56 22 30 - - 0.0
26/03:34pm 16.8 - - - - W 43 61 23 33 - - 0.0
26/03:30pm 16.4 - - - - W 43 57 23 31 - - 0.0
26/03:14pm 16.8 - - - - WSW 37 57 20 31 - - 0.0
26/03:00pm 16.8 - - - - WSW 46 61 25 33 - - 0.0
26/02:33pm 17.3 - - - - W 41 59 22 32 - - 0.0
26/02:30pm 17.6 - - - - W 44 63 24 34 - - 0.0
26/02:00pm 16.6 - - - - WNW 41 56 22 30 - - 0.0
26/01:59pm 16.3 - - - - WNW 41 56 22 30 - - 0.0
26/01:31pm 15.9 - - - - WSW 37 57 20 31 - - 0.0
26/01:30pm 15.8 - - - - WSW 35 52 19 28 - - 0.0
26/01:00pm 15.9 - - - - W 43 56 23 30 - - 0.0
26/12:30pm 15.2 - - - - W 39 54 21 29 - - 0.0
26/12:27pm 15.6 - - - - W 35 54 19 29 - - 0.0
26/12:00pm 14.4 - - - - W 37 48 20 26 - - 0.0
26/11:30am 14.1 - - - - W 30 39 16 21 - - 0.0
26/11:00am 13.2 - - - - W 32 43 17 23 - - 0.0
26/10:30am 11.9 - - - - W 26 35 14 19 - - 0.0
26/10:00am 10.5 - - - - W 22 28 12 15 - - 0.0
26/09:30am 9.4 - - - - W 17 24 9 13 - - 0.0
26/09:00am 7.5 - - - - WNW 17 20 9 11 - - 0.4
26/08:30am 6.0 - - - - WNW 13 17 7 9 - - 0.4
26/08:00am 5.0 - - - - NW 13 19 7 10 - - 0.4
26/07:30am 5.0 - - - - NW 13 17 7 9 - - 0.4
26/07:00am 5.3 - - - - NW 15 19 8 10 - - 0.4
26/06:30am 5.1 - - - - NW 13 15 7 8 - - 0.4
26/06:00am 5.0 - - - - NW 11 15 6 8 - - 0.4
26/05:30am 5.0 - - - - NW 11 15 6 8 - - 0.2
26/05:00am 5.3 - - - - NW 11 15 6 8 - - 0.2
26/04:30am 6.2 - - - - NW 13 17 7 9 - - 0.2
26/04:00am 6.9 - - - - WNW 15 19 8 10 - - 0.2
26/03:30am 6.8 - - - - WNW 11 15 6 8 - - 0.2
26/03:00am 6.9 - - - - NW 11 15 6 8 - - 0.2
26/02:30am 7.0 - - - - NW 11 15 6 8 - - 0.2
26/02:00am 7.2 - - - - NW 13 15 7 8 - - 0.2
26/01:30am 7.6 - - - - NW 11 15 6 8 - - 0.2

Other Formats:

Comma delimited format used in spreadsheet applications
http://www.bom.gov.au/fwo/IDV60801/IDV60801.95835.axf

JavaScript Object Notation format (JSON) in row-major order
http://www.bom.gov.au/fwo/IDV60801/IDV60801.95835.json